Location: Bukovany
(49.8234°N, 14.6297°E)
Time: 06:51:20
(UTC+00:00)

Helios 1A Rocket - Pass Details

Date: 17 November 2025
Orbit: 439 x 451 km, 98.3° (Epoch: 10 December)

Event Time Altitude Azimuth Distance (km) Brightness Sun altitude
Exits shadow 17:50:09 29° 217° (SW) 855 4.1 -24.7°
Drops below altitude 10° 17:51:56 10° 207° (SSW) 1,570 5.5 -25.0°
Sets 17:53:58 0° 204° (SSW) 2,440 6.4 -25.3°
